ASNARO

Last updated on Sat Dec 13 2025 00:02:31 GMT+0000 (Coordinated Universal Time)

1 40298U 14070A 25346.27823203 .00017239 00000+0 81399-3 0 9996 2 40298 97.3651 62.2354 0005527 123.3830 236.7935 15.19484638615621
UTC large
Height (km)
Speed (km/s)
/
Latitude / Longitude
Inclination (degrees)
Orbital Period (minutes)
Azimuth
Elevation
Range (km)
Doppler Factor

Next 0 passes for location: London (51.5072 / 0.1276)

Sorry there are no passes over London.